Tracking 19794 objects as of 21-Jul-2019
HD Live streaming from Space Station
objects crossing your sky now

OV1-5 DEB

Track OV1-5 DEB now!
10-day predictions


NORAD ID: 3611
Int'l Code: 1966-025E
Perigee: 588.4 km
Apogee: 606.8 km
Inclination: 144.6 °
Period: 96.5 minutes
Semi major axis: 6968 km
RCS: 0.0246 m2 (small)
Launch date: March 30, 1966
Source: United States (US)
Launch site: AIR FORCE WESTERN TEST RANGE (AFWTR)

Note: This is SATELLITE DEBRIS
aabbcc
Your satellite tracking list
Your tracking list is empty




NASA's NSSDC Master Catalog

Two Line Element Set (TLE):
1  3611U 66025E   19201.15922493  .00001195  00000-0  70132-4 0  9991
2  3611 144.5595 319.1601 0013189 178.9883 181.0856 14.92401774757718
Source of the keplerian elements: AFSPC